Big Rapids, MI

6:25 AM EDT on October 19, 2019 (GMT -0400)
Roben-Hood

Weather History for KRQB - August, 2019

Change the Weather History Date:

Friday, August 16, 2019

  Actual Average Record
Temperature  
Mean Temperature 63 °F -  
Max Temperature 75 °F 81 °F 91 °F (1988)
Min Temperature 51 °F 55 °F 35 °F (1979)
Degree Days  
Heating Degree Days 2    
Growing Degree Days 13 (Base 50)    
Moisture  
Dew Point 57 °F    
Average Humidity 81    
Maximum Humidity 99    
Minimum Humidity 54    
Precipitation  
Precipitation 0.00 in - - ()
Sea Level Pressure  
Sea Level Pressure 29.95 in    
Wind  
Wind Speed 2 mph (South)    
Max Wind Speed 13 mph    
Max Gust Speed 17 mph    
Visibility 7 miles    
Events Fog , Rain    
Averages and records for this station are not official NWS values.
T = Trace of Precipitation, MM = Missing Value Source: NWS Daily Summary

Daily Weather History Graph

Daily Weather History Graph

Search for Another Location

Airport or City:

Astronomy

Aug. 16, 2019 Rise Set
Actual Time 6:47 AM EDT 8:44 PM EDT
Civil Twilight 6:16 AM EDT 9:15 PM EDT
Nautical Twilight 5:38 AM EDT 9:53 PM EDT
Astronomical Twilight 4:56 AM EDT 10:34 PM EDT
Moon 9:42 PM EDT (8/16) 7:38 AM EDT (8/16)
Length of Visible Light 14h 59m
Length of Day
13h 57m
Full, 99% of the Moon is Illuminated
Aug 16
Full
Aug 23
Last Quarter
Aug 30
New
Sep 5
First Quarter
Sep 14
Full

Hourly Weather History & Observations

Time (EDT) Temp. Dew Point Humidity Pressure Visibility Wind Dir Wind Speed Gust Speed Precip Events Conditions
12:15 AM 55.8 °F 54.5 °F 96% 30.00 in 10.0 mi Calm Calm - N/A   Clear
12:16 AM 55.8 °F 54.5 °F 96% 30.00 in 10.0 mi Calm Calm - N/A   Clear
12:35 AM 56.3 °F 54.7 °F 94% 30.01 in 10.0 mi Calm Calm - N/A   Clear
12:58 AM 54.7 °F 53.4 °F 96% 30.00 in 7.0 mi Calm Calm - N/A   Clear
1:16 AM 54.9 °F 53.8 °F 96% 30.01 in 10.0 mi Calm Calm - N/A   Clear
1:35 AM 54.7 °F 53.6 °F 96% 30.02 in 10.0 mi Calm Calm - N/A   Clear
1:36 AM 54.7 °F 53.6 °F 96% 30.02 in 10.0 mi Calm Calm - N/A   Clear
1:55 AM 54.1 °F 52.9 °F 95% 30.03 in 10.0 mi Calm Calm - N/A   Clear
2:00 AM 54.1 °F 53.1 °F 96% 30.03 in 10.0 mi Calm Calm - N/A   Clear
2:18 AM 53.2 °F 51.8 °F 95% 30.02 in 10.0 mi Calm Calm - N/A   Clear
2:36 AM 53.1 °F 52.0 °F 96% 30.01 in 7.0 mi Calm Calm - N/A   Clear
2:55 AM 52.7 °F 51.8 °F 97% 30.01 in 10.0 mi Calm Calm - N/A   Scattered Clouds
3:15 AM 53.2 °F 52.2 °F 96% 30.00 in 10.0 mi Calm Calm - N/A   Mostly Cloudy
3:39 AM 52.7 °F 51.8 °F 97% 30.00 in 1.8 mi Calm Calm - N/A   Overcast
3:57 AM 53.1 °F 52.3 °F 97% 30.00 in 0.2 mi Calm Calm - N/A Fog Fog
4:15 AM 52.7 °F 51.8 °F 97% 30.00 in 0.2 mi Calm Calm - N/A Fog Fog
4:16 AM 52.5 °F 51.8 °F 97% 30.00 in 0.2 mi Calm Calm - N/A Fog Fog
4:35 AM 52.7 °F 51.8 °F 97% 30.00 in 0.5 mi Calm Calm - N/A Fog Fog
4:57 AM 52.0 °F 51.4 °F 98% 29.99 in 0.2 mi Calm Calm - N/A Fog Fog
5:16 AM 52.0 °F 51.4 °F 98% 29.99 in 0.2 mi Calm Calm - N/A Fog Fog
5:35 AM 52.0 °F 51.4 °F 98% 29.98 in 0.5 mi Calm Calm - N/A Fog Fog
5:55 AM 51.8 °F 51.1 °F 97% 29.99 in 0.2 mi Calm Calm - N/A Fog Fog
5:56 AM 51.6 °F 51.1 °F 98% 29.99 in 0.2 mi Calm Calm - N/A Fog Fog
6:19 AM 51.4 °F 50.9 °F 98% 29.99 in 0.5 mi Calm Calm - N/A Fog Fog
6:37 AM 51.4 °F 50.9 °F 98% 29.99 in 0.2 mi Calm Calm - N/A Fog Fog
6:55 AM 51.3 °F 50.9 °F 99% 29.99 in 0.2 mi Calm Calm - N/A Fog Fog
7:15 AM 51.3 °F 50.9 °F 99% 29.99 in 0.2 mi Calm Calm - N/A Fog Fog
7:16 AM 51.3 °F 50.9 °F 99% 29.98 in 0.2 mi Calm Calm - N/A Fog Fog
7:35 AM 51.8 °F 51.3 °F 98% 29.99 in 0.2 mi Calm Calm - N/A Fog Fog
7:58 AM 52.9 °F 52.2 °F 97% 30.00 in 0.2 mi Calm Calm - N/A Fog Fog
8:16 AM 52.9 °F 52.5 °F 99% 30.00 in 0.2 mi Calm Calm - N/A Fog Fog
8:35 AM 53.6 °F 52.9 °F 97% 30.00 in 0.2 mi Calm Calm - N/A Fog Fog
8:36 AM 53.6 °F 52.9 °F 97% 30.00 in 0.2 mi Calm Calm - N/A Fog Fog
8:55 AM 54.7 °F 54.5 °F 99% 30.00 in 0.2 mi East 3.5 mph - N/A Fog Fog
9:19 AM 55.9 °F 55.6 °F 99% 30.00 in 0.2 mi Calm Calm - N/A Fog Fog
9:37 AM 57.7 °F 57.2 °F 98% 30.01 in 1.0 mi Calm Calm - N/A   Overcast
9:55 AM 59.7 °F 59.2 °F 98% 30.00 in 10.0 mi Calm Calm - N/A   Scattered Clouds
10:15 AM 62.6 °F 61.9 °F 97% 29.99 in 10.0 mi Calm Calm - N/A   Clear
10:16 AM 62.6 °F 62.1 °F 98% 29.99 in 10.0 mi Calm Calm - N/A   Clear
10:35 AM 64.6 °F 63.5 °F 96% 29.98 in 10.0 mi South 6.9 mph - N/A   Clear
10:58 AM 66.2 °F 63.5 °F 91% 29.98 in 10.0 mi South 8.1 mph - N/A   Clear
11:16 AM 66.9 °F 63.7 °F 89% 29.98 in 10.0 mi SSE 6.9 mph - N/A   Clear
11:35 AM 69.6 °F 60.4 °F 73% 29.99 in 10.0 mi SSW 6.9 mph - N/A   Clear
11:36 AM 69.8 °F 60.3 °F 72% 29.99 in 10.0 mi South 6.9 mph - N/A   Clear
11:55 AM 71.6 °F 59.4 °F 65% 29.97 in 10.0 mi SSE 10.4 mph - N/A   Clear
12:18 PM 72.9 °F 59.5 °F 63% 29.97 in 10.0 mi South 9.2 mph - N/A   Scattered Clouds
12:36 PM 71.8 °F 58.6 °F 63% 29.97 in 10.0 mi SSW 3.5 mph - N/A   Mostly Cloudy
12:55 PM 72.9 °F 57.6 °F 59% 29.96 in 10.0 mi SSE 11.5 mph - N/A   Mostly Cloudy
12:56 PM 73.0 °F 57.6 °F 58% 29.96 in 10.0 mi South 11.5 mph - N/A   Mostly Cloudy
1:15 PM 73.0 °F 57.4 °F 58% 29.96 in 10.0 mi South 9.2 mph - N/A   Mostly Cloudy
1:39 PM 73.4 °F 57.7 °F 58% 29.94 in 10.0 mi South 9.2 mph - N/A   Scattered Clouds
1:57 PM 73.9 °F 57.4 °F 56% 29.95 in 10.0 mi South 9.2 mph 17.3 mph N/A   Mostly Cloudy
2:15 PM 74.7 °F 57.7 °F 55% 29.95 in 10.0 mi SSW 6.9 mph - N/A   Overcast
2:16 PM 74.8 °F 57.7 °F 55% 29.95 in 10.0 mi SSW 5.8 mph 9.2 mph N/A   Overcast
2:35 PM 73.9 °F 57.4 °F 56% 29.94 in 10.0 mi SSW 6.9 mph - N/A   Mostly Cloudy
2:55 PM 73.4 °F 58.6 °F 60% 29.94 in 10.0 mi SSW 5.8 mph - N/A   Overcast
3:00 PM 73.6 °F 58.8 °F 60% 29.94 in 10.0 mi SSW 8.1 mph - N/A   Overcast
3:17 PM 75.4 °F 58.3 °F 55% 29.94 in 10.0 mi SSW 6.9 mph - N/A   Scattered Clouds
3:35 PM 75.2 °F 57.6 °F 54% 29.92 in 10.0 mi South 9.2 mph - N/A   Mostly Cloudy
3:55 PM 74.5 °F 57.7 °F 56% 29.92 in 10.0 mi SSW 6.9 mph - N/A   Mostly Cloudy
4:15 PM 75.4 °F 58.5 °F 56% 29.92 in 10.0 mi SSW 8.1 mph - N/A   Overcast
4:16 PM 75.4 °F 58.1 °F 55% 29.91 in 10.0 mi SSW 8.1 mph - N/A   Overcast
4:39 PM 75.6 °F 58.3 °F 55% 29.91 in 10.0 mi South 10.4 mph - N/A   Overcast
5:15 PM 74.1 °F 59.2 °F 59% 29.90 in 10.0 mi South 8.1 mph - N/A   Overcast
5:35 PM 75.4 °F 59.2 °F 57% 29.89 in 10.0 mi South 10.4 mph 16.1 mph N/A   Mostly Cloudy
5:36 PM 75.4 °F 59.2 °F 57% 29.89 in 10.0 mi South 11.5 mph 17.3 mph N/A   Mostly Cloudy
5:55 PM 75.4 °F 60.1 °F 59% 29.89 in 10.0 mi SSW 8.1 mph - N/A   Scattered Clouds
6:18 PM 74.5 °F 59.7 °F 60% 29.89 in 10.0 mi SSW 10.4 mph 16.1 mph N/A   Mostly Cloudy
6:36 PM 74.7 °F 59.0 °F 58% 29.88 in 10.0 mi SSW 11.5 mph - N/A   Overcast
6:55 PM 75.2 °F 60.3 °F 60% 29.87 in 10.0 mi South 12.7 mph 16.1 mph N/A   Overcast
6:56 PM 75.2 °F 60.3 °F 60% 29.87 in 10.0 mi South 11.5 mph 16.1 mph N/A   Overcast
7:15 PM 74.3 °F 60.8 °F 63% 29.87 in 10.0 mi SSE 4.6 mph - N/A   Overcast
7:37 PM 74.3 °F 61.0 °F 63% 29.87 in 10.0 mi SSE 3.5 mph - N/A   Overcast
7:55 PM 73.6 °F 61.5 °F 66% 29.86 in 10.0 mi SSE 5.8 mph - N/A   Overcast
8:15 PM 73.2 °F 61.7 °F 67% 29.87 in 10.0 mi South 4.6 mph - N/A   Overcast
8:16 PM 73.2 °F 61.7 °F 67% 29.87 in 10.0 mi South 4.6 mph - N/A   Overcast
8:35 PM 72.5 °F 61.9 °F 69% 29.87 in 10.0 mi SSW 8.1 mph - N/A   Overcast
8:36 PM 72.5 °F 61.9 °F 69% 29.87 in 10.0 mi South 3.5 mph - N/A   Overcast
8:59 PM 72.1 °F 62.1 °F 70% 29.86 in 10.0 mi SSE 3.5 mph - N/A   Overcast
9:17 PM 71.4 °F 62.4 °F 73% 29.85 in 10.0 mi Calm Calm - N/A Rain Light Rain
9:35 PM 69.1 °F 64.9 °F 87% 29.86 in 10.0 mi East 5.8 mph - N/A   Overcast
9:55 PM 68.0 °F 64.9 °F 90% 29.86 in 10.0 mi SSE 3.5 mph - N/A   Overcast
9:56 PM 68.0 °F 64.9 °F 90% 29.86 in 10.0 mi SE 3.5 mph - N/A   Overcast
10:15 PM 67.8 °F 64.9 °F 90% 29.85 in 10.0 mi Calm Calm - N/A   Overcast
10:39 PM 67.5 °F 64.9 °F 92% 29.83 in 10.0 mi Calm Calm - N/A   Mostly Cloudy
10:57 PM 68.0 °F 64.6 °F 89% 29.83 in 10.0 mi SSE 3.5 mph - N/A   Overcast
11:15 PM 67.8 °F 63.5 °F 86% 29.83 in 10.0 mi SSE 3.5 mph - N/A   Scattered Clouds
11:16 PM 67.8 °F 63.5 °F 86% 29.83 in 10.0 mi SSE 4.6 mph - N/A   Scattered Clouds
11:35 PM 68.5 °F 63.7 °F 84% 29.84 in 10.0 mi Calm Calm - N/A   Mostly Cloudy
11:55 PM 68.9 °F 64.0 °F 84% 29.84 in 4.0 mi SSE 6.9 mph - N/A Rain Light Rain